This demonstration page uses our WeatherBlox Daily Observations layout. Learn more.

Left ArrowRight Arrow

39.12711, -84.51439

Hourly Observations for June 21, 2016

Temp ( °F °C ) Dew Point ( °F °C ) Humidity (%) Winds ( mph kmh ) Pressure ( in mb ) Visibility ( mi km ) Precip ( " mm )
12:53 am 00:53 Mostly Clear 79 26.1 71 21.7 77 77 WSW 13 20 30.03 1017 10 16 N/A
1:53 am 01:53 Partly Cloudy with Light Rain 78 25.6 72 22.2 82 82 W 14 22 30.05 1018 10 16 0.01 0.25
2:53 am 02:53 Clear 75 23.9 67 19.4 76 76 WSW 13 20 30.01 1016 10 16 N/A
3:53 am 03:53 Clear 74 23.3 66 18.9 76 76 S 5 7 29.96 1014 10 16 N/A
4:53 am 04:53 Clear 74 23.3 69 20.6 85 85 W 7 11 29.96 1015 10 16 N/A
5:53 am 05:53 Clear 75 23.9 70 21.1 84 84 SW 6 9 29.96 1014 10 16 N/A
6:53 am 06:53 Mostly Sunny 76 24.4 71 21.7 85 85 WSW 7 11 29.96 1015 10 16 N/A
7:53 am 07:53 Sunny 77 25 72 22.2 85 85 SW 7 11 29.97 1015 10 16 N/A
8:53 am 08:53 Mostly Cloudy 78 25.6 73 22.8 85 85 WSW 5 7 29.97 1015 10 16 N/A
9:53 am 09:53 Partly Cloudy 81 27.2 73 22.8 77 77 W 12 19 29.96 1015 10 16 N/A
10:08 am 10:08 Mostly Cloudy 80 26.7 73 22.8 79 79 W 9 15 29.94 1014 10 16 N/A
10:53 am 10:53 Mostly Cloudy 81 27.2 74 23.3 79 79 WSW 8 13 29.96 1015 9 14 N/A
11:53 am 11:53 Mostly Cloudy 82 27.8 73 22.8 74 74 W 14 22 29.97 1015 10 16 N/A
12:53 pm 12:53 Mostly Cloudy 83 28.3 72 22.2 70 70 W 14 22 29.96 1014 10 16 N/A
1:53 pm 13:53 Mostly Cloudy 85 29.4 69 20.6 59 59 WNW 15 24 29.94 1014 10 16 N/A
2:53 pm 14:53 Mostly Cloudy 87 30.6 64 17.8 46 46 WNW 13 20 29.93 1014 10 16 N/A
3:53 pm 15:53 Sunny 87 30.6 54 12.2 32 32 W 20 31 29.92 1013 10 16 N/A
4:53 pm 16:53 Sunny 86 30 55 12.8 35 35 W 15 24 29.91 1013 10 16 N/A
5:53 pm 17:53 Sunny 86 30 54 12.2 33 33 W 13 20 29.90 1013 10 16 N/A
6:53 pm 18:53 Sunny 83 28.3 58 14.4 43 43 W 13 20 29.90 1013 10 16 N/A
7:53 pm 19:53 Sunny 83 28.3 53 11.7 36 36 NW 13 20 29.92 1013 10 16 N/A
8:53 pm 20:53 Sunny 79 26.1 55 12.8 44 44 W 6 9 29.92 1013 10 16 N/A
9:53 pm 21:53 Clear 73 22.8 57 13.9 57 57 S 3 6 29.94 1014 10 16 N/A
10:53 pm 22:53 Clear 73 22.8 59 15 62 62 N N/A 29.96 1014 10 16 N/A
11:53 pm 23:53 Clear 66 18.9 60 15.6 81 81 SSW 6 9 29.96 1015 10 16 N/A

Powered by AerisWeather